Temperature
6 5 5 5 6 6 6 6 6 6 6 6 5 5 6 6 6 6 6 6 7 7 8 8 8 9 9 9 9 9 9 9 9 9 9 9 9 9 10 10 9 9 9 9
5 5 5 6 6 6 6 6 5 5 6 6 5 5 5 5 5 6 5 5 6 7 7 8 8 8 8 9 9 9 9 9 9 9 9 9 9 9 9 9 9 9 9 9
5 5 6 6 6 6 6 6 6 5 5 5 5 6 6 5 5 5 5 6 6 6 7 7 7 8 8 8 8 8 8 8 8 8 8 8 9 9 9 9 9 9 9 8
4 5 6 6 6 6 6 6 6 5 5 4 5 5 5 5 5 5 5 5 6 6 6 7 7 7 7 7 8 8 8 8 8 7 8 8 8 8 8 8 8 8 8 8
4 5 5 5 5 5 5 5 5 5 4 4 4 4 5 4 5 5 4 5 5 5 6 6 6 6 7 7 7 7 7 7 7 7 7 7 7 7 7 7 8 8 8 7
4 4 5 5 5 5 5 4 4 3 3 4 4 4 4 3 4 4 4 4 5 5 5 6 6 6 6 6 6 6 6 6 6 6 6 6 6 7 7 7 7 7 7 7
4 4 4 4 5 4 4 4 3 3 3 3 3 3 4 4 4 3 3 4 4 4 5 5 5 5 5 6 6 6 6 6 6 6 6 6 6 6 6 6 6 6 6 6
3 4 4 4 4 4 4 4 4 4 3 3 3 3 4 4 3 3 3 4 4 4 4 4 4 5 5 5 5 5 6 6 6 6 5 5 5 5 5 5 5 6 6 6
3 3 4 4 4 4 4 3 3 2 2 2 3 2 3 3 3 3 3 3 3 3 3 4 4 4 4 5 5 5 5 5 5 5 5 5 5 5 5 5 5 5 5 5
2 2 3 3 4 3 3 2 1 2 3 4 4 3 4 3 3 2 2 2 2 3 3 3 3 4 4 4 4 5 5 5 4 5 4 4 4 4 4 4 4 5 5 4
2 1 2 2 3 3 3 2 2 1 2 3 3 4 3 3 2 1 1 2 2 2 2 2 3 3 3 3 4 4 4 4 4 4 4 4 4 4 4 4 4 4 4 4
1 0 1 1 2 2 2 2 1 2 2 1 2 3 3 1 1 1 1 1 2 2 2 2 2 2 3 3 3 3 3 3 3 3 3 4 3 4 4 4 3 3 3 3
1 0 1 2 2 1 1 1 1 0 0 -0 1 3 2 1 1 1 1 1 1 1 1 1 1 2 2 2 2 2 3 3 3 3 3 3 3 3 3 3 3 3 3 3
1 -1 1 2 2 1 1 1 -0 0 0 0 1 2 2 1 0 -0 0 1 1 1 1 1 1 1 1 1 1 2 2 2 2 2 2 2 2 2 2 2 2 2 2 2
-1 -1 -1 -1 -0 -0 0 0 -0 -0 0 1 1 1 1 0 -0 -0 -0 -0 0 0 0 0 0 0 1 1 1 1 1 1 1 2 2 2 2 2 2 2 2 2 2 2
-2 -1 -2 -1 -0 -1 -0 -0 -1 -0 -0 -0 0 0 -0 -1 -0 -1 -1 -1 -0 -0 -0 -0 0 0 0 0 0 1 1 1 1 1 1 1 1 1 1 1 1 1 1 1
-3 -2 -1 -1 -1 -0 0 -0 -1 -1 -1 -1 -0 0 -1 -1 -2 -1 -1 -1 -1 -0 -0 -0 -0 0 0 0 0 0 0 0 0 0 0 0 0 0 0 0 0 0 0 0
-3 -3 -3 -2 -1 1 1 -1 -1 -1 -2 -2 -2 -2 -2 -2 -1 -1 -1 -1 -1 -1 -1 -0 -0 -0 0 0 -0 -0 -0 -0 -0 -0 -0 -0 -0 -1 -0 -0 -0 -0 -0 -0
-3 -3 -3 -3 -2 -1 0 -1 -2 -2 -1 -3 -3 -3 -2 -2 -2 -1 -1 -1 -1 -1 -1 -1 -1 -0 -0 -0 -0 -1 -1 -1 -1 -1 -1 -1 -1 -1 -1 -1 -1 -1 -1 -1
-4 -4 -3 -3 -1 0 1 -1 -2 -2 -1 -2 -3 -3 -3 -2 -3 -2 -1 -1 -1 -1 -1 -1 -1 -1 -1 -1 -1 -1 -1 -1 -1 -1 -1 -1 -1 -1 -2 -2 -2 -2 -2 -2
-3 -4 -3 -3 -2 -2 -1 -2 -2 -0 -0 -2 -2 -3 -3 -3 -3 -2 -2 -2 -2 -1 -1 -1 -1 -1 -1 -1 -1 -2 -2 -2 -2 -2 -2 -2 -2 -2 -2 -2 -2 -2 -2 -2
-3 -3 -4 -4 -2 -1 -2 -3 -2 -2 -2 -2 -2 -3 -3 -3 -2 -2 -2 -2 -2 -2 -1 -1 -1 -1 -1 -2 -2 -2 -2 -2 -2 -2 -2 -2 -3 -3 -3 -3 -3 -3 -3 -3
-4 -3 -3 -3 -1 -2 -2 -2 -2 -2 -2 -3 -3 -3 -3 -3 -3 -2 -2 -2 -2 -2 -2 -2 -2 -2 -2 -2 -2 -2 -2 -3 -3 -3 -3 -3 -3 -3 -3 -3 -3 -3 -3 -3
-5 -5 -5 -5 -4 -3 -2 -2 -2 -2 -2 -3 -3 -3 -3 -3 -3 -3 -3 -3 -2 -2 -2 -2 -2 -2 -2 -2 -3 -3 -3 -3 -3 -3 -3 -4 -4 -4 -4 -4 -4 -4 -4 -4
-4 -5 -5 -5 -5 -4 -3 -2 -2 -3 -3 -3 -3 -3 -3 -3 -3 -3 -3 -3 -3 -3 -3 -3 -3 -3 -3 -3 -3 -3 -3 -3 -4 -4 -4 -4 -5 -5 -5 -5 -5 -5 -4 -4
-5 -5 -4 -3 -4 -4 -3 -2 -3 -3 -3 -3 -3 -3 -3 -3 -3 -3 -3 -3 -3 -3 -3 -3 -3 -3 -3 -3 -3 -3 -4 -4 -4 -4 -5 -5 -5 -5 -6 -5 -5 -5 -5 -5
Wind_Speed
3 3 2 4 4 4 2 3 5 5 3 3 6 9 10 6 3 4 4 4 3 4 4 4 3 1 1 0 0 1 1 1 2 2 2 2 3 2 2 3 3 4 4 4
4 1 4 3 2 2 2 3 4 4 3 2 5 8 8 5 3 2 2 4 4 5 5 5 4 2 1 1 1 1 2 2 2 2 2 2 2 2 2 2 3 4 4 4
2 3 2 1 0 1 2 4 3 3 5 2 4 6 3 2 1 2 3 3 4 4 5 6 5 3 2 2 2 2 2 2 2 2 2 2 1 1 2 3 3 3 4 4
1 3 1 1 1 1 3 2 2 2 2 3 2 4 5 3 4 4 5 5 6 6 5 5 5 4 4 3 3 2 2 2 2 2 2 4 4 4 4 3 3 3 4 5
2 1 1 1 2 1 3 2 1 1 1 2 1 2 6 3 4 5 5 6 7 6 6 6 5 5 4 4 2 2 2 2 2 2 3 4 4 4 3 2 4 4 4 4
2 1 0 2 2 1 0 2 3 4 3 2 2 3 6 3 3 5 5 6 7 7 7 6 5 5 5 4 2 1 2 3 2 2 3 4 5 4 4 3 4 4 3 3
4 3 2 0 1 3 3 4 4 5 4 5 1 2 7 4 3 3 5 7 7 6 6 6 6 6 6 5 4 2 2 3 2 2 3 3 4 4 4 4 5 4 3 3
2 4 2 2 1 1 0 3 4 2 4 5 2 5 6 3 2 3 4 5 6 7 6 6 6 5 5 5 4 3 3 2 2 2 2 2 2 2 2 3 3 4 4 4
2 4 2 2 1 2 2 1 2 3 0 3 5 6 6 2 4 5 6 7 8 8 8 7 6 6 5 5 5 4 3 3 2 2 2 2 2 2 3 3 3 3 3 3
3 2 3 3 2 2 2 4 4 3 0 4 6 5 4 5 5 6 6 7 8 8 8 8 7 6 6 5 5 4 2 3 2 1 1 2 2 3 2 2 3 3 2 2
2 2 3 2 1 2 2 2 3 2 2 2 4 6 3 3 3 4 6 6 6 7 8 7 7 6 6 5 5 4 3 3 2 2 1 1 1 2 1 1 2 2 2 2
2 2 2 4 2 1 2 3 4 2 3 3 3 7 2 2 3 3 6 7 6 7 7 7 7 6 6 5 5 4 4 3 3 2 1 1 0 1 1 1 1 1 1 2
3 3 2 5 3 2 0 1 2 3 2 3 4 7 2 4 5 5 5 7 7 7 7 7 6 6 6 5 5 4 4 3 3 2 1 1 1 0 0 1 1 1 1 1
2 3 5 6 5 2 3 3 2 4 3 5 8 10 8 8 9 8 7 7 7 7 7 6 6 6 6 5 5 5 4 4 3 2 2 2 1 1 1 1 1 1 1 1
3 2 3 5 5 3 5 6 5 7 7 8 9 9 11 8 7 7 7 7 7 8 8 7 7 6 6 6 5 5 4 3 3 2 2 1 2 1 1 1 1 1 0 0
2 1 1 3 2 3 6 8 8 8 7 8 9 11 8 7 5 6 6 7 7 8 9 8 7 7 6 5 5 5 4 3 2 2 2 2 2 2 2 1 1 1 1 1
2 2 0 4 5 4 6 6 7 5 5 6 8 8 7 8 8 7 7 7 7 8 8 8 7 6 6 5 4 4 3 3 2 2 2 2 2 3 2 2 2 2 1 1
4 3 1 2 4 4 5 1 3 4 6 6 6 7 7 7 8 6 5 5 7 8 8 7 7 6 5 4 3 3 3 2 2 2 2 2 3 3 3 3 2 2 1 1
3 4 2 1 2 7 6 1 1 2 5 3 6 8 7 7 6 5 3 4 6 7 6 6 6 5 4 3 3 3 3 3 3 2 2 2 2 2 3 3 3 2 1 1
3 3 3 2 2 5 4 2 1 1 4 2 3 6 5 5 4 5 6 7 7 7 6 5 5 4 4 4 3 3 3 3 3 2 2 2 2 2 2 2 2 2 2 2
2 1 3 4 5 7 5 2 1 1 5 5 3 4 3 3 5 7 8 7 6 6 6 5 4 3 4 4 3 3 2 3 3 2 2 2 2 2 1 1 1 2 2 2
5 4 4 4 4 7 1 2 2 4 4 4 4 4 5 6 7 7 7 7 6 6 6 5 4 4 4 3 3 3 3 3 3 2 3 3 3 2 2 2 2 2 2 2
6 6 5 7 7 3 2 3 3 3 4 5 5 6 5 6 6 7 6 6 5 5 5 4 3 3 4 4 2 2 3 3 3 3 3 3 3 3 2 2 2 2 2 1
4 2 3 4 7 5 5 4 3 3 4 6 6 6 5 6 6 7 6 6 5 5 4 3 3 3 4 4 3 3 3 2 2 3 3 3 3 4 3 3 2 2 2 2
4 4 3 6 6 5 4 4 4 5 5 5 6 5 5 5 6 6 6 6 5 4 3 3 2 3 4 3 3 3 2 2 2 2 2 3 3 3 3 3 2 3 3 2
4 5 5 5 4 4 6 4 4 4 5 6 6 6 6 5 6 6 6 5 4 4 3 3 3 3 3 3 3 3 2 1 1 2 2 2 2 2 2 3 4 5 4 5
Wind_Direction
22 72 208 229 215 221 211 247 270 276 292 294 266 275 282 282 273 281 297 305 297 295 300 311 308 284 267 265 129 162 213 216 187 186 185 182 194 200 196 194 188 186 181 179
38 289 247 241 214 215 226 261 276 295 323 300 287 284 279 267 246 254 297 315 309 316 329 329 328 324 272 260 248 226 225 235 220 209 190 179 181 196 205 196 193 190 187 186
197 254 275 180 281 263 260 221 246 280 323 337 320 307 302 314 340 356 350 326 322 314 314 320 323 312 317 298 264 255 248 249 241 215 162 140 142 185 207 203 195 200 196 196
266 291 321 327 306 231 270 247 243 279 336 308 7 302 290 318 332 345 345 343 332 327 318 320 324 320 313 294 283 267 253 245 243 210 192 193 201 211 221 214 205 205 200 202
293 322 347 276 280 237 229 317 319 287 172 324 334 239 291 344 323 317 328 332 328 326 327 325 322 313 315 312 301 278 255 245 237 217 204 201 213 219 219 208 199 203 202 204
265 292 251 233 289 267 222 34 53 50 65 316 258 195 284 271 271 308 324 328 331 334 338 333 335 339 335 333 326 305 267 263 248 223 212 207 209 216 217 220 210 209 207 201
337 331 344 359 10 358 48 67 23 3 2 266 267 222 257 266 275 285 304 319 331 343 347 347 352 349 341 340 335 314 280 275 260 230 223 222 213 210 218 226 218 213 211 214
343 298 313 3 164 228 344 117 143 216 257 289 300 245 260 278 313 326 331 333 348 355 354 350 348 341 332 330 326 310 295 287 278 243 235 228 211 206 225 231 224 218 218 217
184 265 321 343 330 140 94 109 141 132 200 284 278 288 303 321 352 357 360 1 355 351 348 344 343 341 336 331 321 304 297 299 290 260 243 223 215 212 225 241 222 216 222 218
158 259 289 315 50 41 118 135 90 103 181 285 295 284 276 306 324 341 350 352 347 346 343 340 338 337 337 333 326 333 321 298 289 273 251 249 228 222 220 229 226 213 210 206
133 173 309 353 183 191 100 93 105 121 170 194 288 280 235 265 310 317 326 334 336 335 332 330 331 332 334 338 338 346 344 339 338 316 279 257 243 228 217 229 237 221 207 203
131 130 274 270 277 279 180 173 152 169 240 208 237 272 285 283 311 320 324 329 327 328 328 328 330 335 341 343 341 343 343 336 326 330 345 331 274 223 203 250 257 223 212 212
139 121 356 343 347 356 257 187 160 139 140 189 216 267 315 357 346 335 327 326 325 328 333 336 337 340 337 336 334 336 335 335 342 360 21 19 359 352 273 261 238 207 210 223
111 147 189 219 239 217 246 240 189 161 196 237 238 266 295 320 324 323 325 322 321 323 328 333 335 332 328 327 328 331 333 340 352 20 33 29 6 348 299 255 229 197 192 203
99 195 234 259 270 254 248 247 223 213 214 227 256 264 281 299 303 306 313 319 323 323 326 328 328 324 325 331 333 333 336 341 353 27 29 3 360 13 32 42 49 53 79 295
76 157 308 298 287 262 269 258 238 236 235 246 271 277 284 299 308 310 310 312 312 314 316 319 320 321 324 326 328 331 338 342 359 34 22 16 25 29 33 39 54 43 34 24
119 129 39 287 317 334 283 250 214 216 221 212 243 266 311 317 316 308 301 303 302 306 311 313 312 311 313 313 317 324 333 350 21 35 28 26 33 31 26 40 48 41 32 37
148 140 148 308 7 266 256 259 196 221 251 237 263 290 300 297 299 291 286 294 304 312 314 314 317 318 319 320 330 344 359 17 30 35 34 35 38 29 29 39 35 25 29 12
160 146 133 133 282 282 299 295 178 212 287 250 258 289 308 321 324 313 314 313 302 303 306 309 311 314 322 334 344 6 18 24 29 25 21 21 28 32 31 28 14 13 37 7
82 110 133 150 225 255 275 289 266 134 305 321 279 292 312 345 337 304 322 322 316 317 319 320 326 333 342 344 2 25 20 19 8 0 356 1 28 30 24 18 8 22 27 14
127 120 174 197 234 264 267 280 80 127 284 313 298 290 294 276 260 288 311 315 314 317 323 330 333 340 340 348 13 21 14 354 341 356 7 11 24 27 14 30 32 30 26 24
179 174 191 175 215 258 255 112 175 248 293 303 296 289 285 285 291 299 308 314 322 327 331 336 339 341 343 355 9 3 349 336 354 17 22 20 17 11 10 32 19 20 20 16
201 197 194 200 219 255 210 223 252 259 281 289 290 295 292 292 296 304 311 314 317 318 321 330 339 345 349 354 2 342 328 347 11 27 26 21 12 12 16 24 14 6 360 354
248 207 200 252 266 269 269 263 279 278 275 290 292 291 290 288 294 303 309 311 313 314 317 328 343 345 336 340 351 339 333 3 27 25 19 20 22 18 18 13 8 354 335 335
233 184 214 254 276 302 282 272 284 293 301 305 305 289 283 287 294 297 303 305 306 311 319 327 325 319 317 328 338 343 352 25 29 15 8 12 18 16 12 9 0 346 334 331
206 194 201 238 242 237 269 276 287 296 299 301 306 306 302 290 288 298 301 301 305 312 321 324 323 319 320 328 332 341 348 19 37 6 1 5 8 8 10 8 359 360 353 353
Height
1480 1484 1486 1484 1484 1483 1485 1486 1486 1483 1480 1480 1479 1475 1470 1467 1468 1467 1465 1464 1463 1463 1463 1463 1463 1464 1465 1466 1467 1468 1470 1471 1472 1473 1474 1475 1477 1479 1481 1483 1484 1485 1487 1488
1484 1485 1483 1482 1482 1483 1484 1486 1485 1482 1479 1480 1479 1475 1468 1466 1466 1465 1465 1464 1463 1462 1461 1461 1460 1461 1461 1462 1463 1465 1467 1468 1469 1470 1471 1473 1474 1475 1477 1479 1480 1482 1483 1484
1485 1484 1482 1482 1482 1483 1483 1484 1484 1484 1481 1479 1480 1472 1468 1466 1465 1464 1463 1463 1462 1461 1460 1459 1458 1458 1458 1458 1460 1461 1463 1465 1465 1466 1467 1469 1470 1471 1473 1474 1476 1478 1479 1481
1485 1483 1482 1482 1482 1482 1483 1481 1482 1483 1485 1486 1484 1481 1469 1468 1466 1464 1464 1462 1461 1460 1459 1458 1457 1456 1457 1458 1458 1459 1460 1461 1462 1463 1464 1465 1466 1467 1468 1470 1472 1474 1476 1477
1486 1484 1483 1483 1482 1482 1482 1481 1482 1483 1486 1489 1486 1486 1474 1471 1468 1465 1464 1462 1461 1460 1458 1457 1456 1456 1456 1456 1456 1457 1458 1458 1459 1460 1460 1461 1462 1463 1464 1466 1467 1469 1471 1473
1486 1484 1484 1484 1483 1482 1482 1483 1485 1489 1490 1491 1487 1489 1479 1474 1469 1466 1464 1463 1461 1459 1458 1456 1456 1455 1454 1454 1454 1454 1455 1455 1456 1457 1457 1457 1458 1459 1461 1461 1463 1464 1466 1468
1488 1485 1484 1484 1484 1483 1483 1488 1496 1496 1501 1494 1488 1487 1479 1469 1468 1467 1465 1463 1461 1459 1457 1455 1454 1453 1452 1452 1452 1452 1452 1452 1453 1454 1454 1455 1455 1456 1457 1458 1459 1460 1461 1462
1493 1491 1486 1485 1485 1487 1486 1488 1496 1497 1501 1495 1488 1485 1474 1468 1467 1466 1464 1463 1460 1458 1457 1455 1454 1453 1451 1450 1450 1450 1449 1449 1450 1450 1451 1452 1452 1453 1454 1454 1455 1456 1457 1458
1495 1492 1487 1486 1485 1486 1487 1491 1492 1499 1504 1501 1489 1484 1473 1467 1466 1465 1463 1461 1460 1458 1457 1455 1453 1451 1450 1449 1448 1448 1447 1447 1447 1447 1447 1448 1449 1450 1450 1451 1452 1452 1453 1454
1493 1496 1489 1487 1486 1488 1488 1491 1497 1499 1498 1495 1487 1482 1476 1468 1466 1465 1464 1462 1461 1459 1457 1455 1453 1450 1449 1448 1447 1446 1445 1444 1444 1444 1445 1445 1446 1447 1447 1447 1448 1449 1449 1450
1493 1497 1493 1490 1490 1489 1491 1493 1495 1500 1500 1497 1491 1479 1470 1469 1467 1466 1464 1462 1461 1459 1457 1454 1452 1450 1448 1446 1445 1443 1442 1442 1441 1442 1442 1442 1443 1444 1444 1444 1445 1445 1446 1446
1493 1498 1499 1494 1490 1489 1489 1491 1495 1497 1499 1501 1497 1483 1468 1468 1466 1465 1463 1461 1459 1458 1456 1454 1451 1448 1446 1444 1443 1441 1440 1439 1439 1439 1439 1439 1440 1440 1440 1441 1442 1442 1442 1443
1493 1497 1499 1494 1495 1493 1491 1491 1493 1497 1501 1503 1497 1479 1468 1467 1466 1465 1463 1461 1458 1456 1454 1452 1449 1446 1444 1442 1441 1439 1438 1437 1436 1436 1436 1436 1437 1437 1437 1438 1438 1439 1439 1439
1490 1497 1498 1493 1488 1491 1492 1491 1493 1495 1498 1497 1488 1476 1468 1467 1466 1464 1462 1460 1458 1455 1453 1450 1448 1445 1443 1441 1439 1437 1436 1436 1435 1435 1434 1434 1434 1434 1435 1435 1435 1436 1436 1436
1491 1497 1497 1494 1492 1492 1490 1489 1490 1491 1489 1488 1480 1477 1468 1467 1466 1464 1462 1459 1456 1454 1451 1449 1447 1444 1442 1440 1438 1436 1435 1434 1433 1433 1432 1432 1431 1432 1432 1432 1432 1432 1432 1433
1493 1496 1497 1493 1489 1490 1489 1485 1486 1485 1484 1483 1478 1473 1467 1466 1464 1462 1460 1458 1455 1453 1450 1448 1446 1443 1441 1439 1437 1435 1433 1432 1432 1431 1431 1430 1430 1429 1429 1429 1429 1429 1429 1429
1495 1497 1496 1493 1493 1488 1484 1478 1479 1480 1479 1478 1476 1470 1466 1464 1462 1460 1459 1457 1454 1452 1449 1447 1444 1442 1440 1437 1435 1433 1432 1431 1430 1430 1429 1429 1428 1427 1427 1427 1427 1426 1426 1426
1494 1496 1500 1500 1495 1487 1476 1475 1474 1476 1475 1474 1471 1468 1466 1464 1461 1459 1457 1456 1453 1450 1448 1445 1443 1440 1438 1436 1435 1433 1431 1430 1429 1429 1428 1427 1426 1426 1425 1425 1424 1424 1424 1424
1490 1494 1500 1502 1498 1487 1476 1474 1475 1476 1473 1470 1470 1467 1465 1462 1459 1456 1455 1454 1452 1450 1447 1445 1442 1440 1437 1435 1434 1432 1430 1429 1428 1427 1427 1426 1425 1425 1424 1423 1422 1422 1421 1421
1492 1493 1499 1501 1494 1486 1475 1474 1472 1474 1472 1468 1467 1465 1464 1462 1462 1458 1455 1453 1450 1448 1446 1443 1441 1439 1436 1435 1433 1431 1429 1429 1428 1427 1426 1425 1425 1424 1423 1422 1421 1420 1419 1419
1494 1496 1498 1498 1496 1484 1475 1473 1473 1476 1472 1468 1466 1464 1463 1463 1462 1458 1454 1451 1449 1447 1444 1442 1440 1437 1435 1434 1432 1431 1430 1428 1428 1427 1426 1425 1424 1423 1422 1421 1420 1419 1419 1419
1490 1493 1495 1496 1494 1482 1473 1472 1474 1473 1468 1466 1464 1463 1462 1460 1457 1455 1452 1449 1447 1444 1442 1440 1438 1436 1435 1433 1432 1430 1429 1429 1427 1426 1425 1424 1423 1422 1421 1420 1419 1419 1418 1418
1485 1484 1483 1483 1478 1472 1470 1470 1470 1469 1467 1464 1463 1461 1459 1457 1454 1452 1450 1448 1445 1443 1441 1440 1438 1436 1434 1433 1432 1430 1429 1428 1427 1426 1424 1423 1422 1421 1420 1419 1418 1418 1417 1417
1480 1479 1479 1478 1471 1469 1468 1467 1467 1466 1464 1462 1461 1459 1456 1454 1452 1450 1448 1446 1444 1442 1440 1439 1437 1435 1434 1433 1431 1430 1429 1428 1427 1425 1424 1423 1422 1420 1419 1419 1418 1417 1417 1416
1475 1477 1477 1475 1469 1466 1464 1464 1464 1463 1461 1459 1457 1456 1454 1452 1450 1448 1446 1444 1442 1440 1439 1437 1436 1434 1433 1432 1431 1430 1428 1427 1426 1425 1423 1422 1421 1420 1419 1418 1418 1417 1416 1416
1471 1472 1472 1468 1465 1466 1463 1462 1461 1460 1458 1456 1454 1452 1451 1450 1447 1446 1443 1442 1440 1439 1437 1436 1435 1433 1432 1431 1430 1429 1427 1426 1425 1423 1422 1421 1420 1419 1418 1418 1417 1417 1416 1415